Location: Bastrop State Park
(30.1090°N, 97.2819°W)
Time: 10:21:10
(UTC-06:00)

ISS - Visible Passes

Search period start: 23 February 2017 00:00
Search period end: 05 March 2017 00:00
Orbit: 399 x 408 km, 51.6° (Epoch: 24 February)

Date Brightness Start Highest point End Pass type
(mag) Time Alt. Az. Time Alt. Az. Time Alt. Az.
26 Feb -0.1 06:02:45 10° SSE 06:04:14 13° SE 06:05:44 10° E visible
28 Feb -1.8 05:52:17 10° SSW 05:55:20 36° SE 05:58:23 10° ENE visible
01 Mar -0.7 05:02:10 15° SE 05:02:54 16° SE 05:05:01 10° E visible
02 Mar -3.4 05:45:17 34° WSW 05:46:30 66° NW 05:49:47 10° NE visible
03 Mar -1.1 04:55:28 26° ENE 04:55:28 26° ENE 04:57:08 10° NE visible
04 Mar -1.8 05:38:07 23° NNW 05:38:07 23° NNW 05:40:32 10° NNE visible
